This is the latest recevied weather packets stored in our database for station/object W5MAI. If no packets are shown the sender has not sent any weather packets the latest 10 day(s).
| Time | Temp. | Humidity | Pressure | Rain* | Wind** | Luminosity | Snow |
|---|---|---|---|---|---|---|---|
| 1777932262 | 26.67° C | 63% | 1011.9 hPa | 0 mm | - | 422 W/m² | - |
| 1777931627 | 26.67° C | 63% | 1011.9 hPa | 0 mm | - | 360 W/m² | - |
| 1777931057 | 26.11° C | 64% | 1012 hPa | 0 mm | - | 341 W/m² | - |
| 1777930422 | 26.11° C | 63% | 1012 hPa | 0 mm | - | 485 W/m² | - |
| 1777929858 | 26.11° C | 64% | 1012.2 hPa | 0 mm | - | 381 W/m² | - |
| 1777929211 | 26.67° C | 63% | 1012.4 hPa | 0 mm | - | 323 W/m² | - |
| 1777928645 | 26.11° C | 64% | 1012.7 hPa | 0 mm | - | 318 W/m² | - |
| 1777928006 | 26.11° C | 64% | 1013 hPa | 0 mm | - | 362 W/m² | - |
| 1777926838 | 26.11° C | 64% | 1013.2 hPa | 0 mm | - | 350 W/m² | - |
| 1777926256 | 26.11° C | 64% | 1013.3 hPa | 0 mm | - | 381 W/m² | - |
| 1777925620 | 26.11° C | 65% | 1013.4 hPa | 0 mm | - | 404 W/m² | - |
| 1777925060 | 26.11° C | 63% | 1013.5 hPa | 0 mm | - | 424 W/m² | - |
| 1777923244 | 26.11° C | 63% | 1013.9 hPa | 0 mm | - | 559 W/m² | - |
| 1777922614 | 26.11° C | 62% | 1013.8 hPa | 0 mm | - | 462 W/m² | - |
| 1777922053 | 26.11° C | 64% | 1014.1 hPa | 0 mm | - | 1102 W/m² | - |
| 1777921410 | 26.11° C | 63% | 1014.2 hPa | 0 mm | - | 1027 W/m² | - |
| 1777920834 | 26.11° C | 63% | 1014.3 hPa | 0 mm | - | 1027 W/m² | - |
| 1777920262 | 26.11° C | 62% | 1014.3 hPa | 0 mm | - | 1044 W/m² | - |
| 1777919621 | 26.11° C | 63% | 1014.7 hPa | 0 mm | - | 1034 W/m² | - |
| 1777919024 | 26.11° C | 63% | 1014.9 hPa | 0 mm | - | 1009 W/m² | - |
| 1777918451 | 25.56° C | 64% | 1015 hPa | 0 mm | - | 1069 W/m² | - |
| 1777917806 | 25° C | 65% | 1015 hPa | 0 mm | - | 1067 W/m² | - |
| 1777917230 | 25° C | 65% | 1015.2 hPa | 0 mm | - | 1063 W/m² | - |
| 1777916657 | 25° C | 66% | 1015.2 hPa | 0 mm | - | 436 W/m² | - |
| 1777915428 | 24.44° C | 67% | 1015.3 hPa | 0 mm | - | 1028 W/m² | - |
* Rain latest hour (hover to see other rain measurements)
** Current wind speed in m/s (hover to see current wind gust speed)